Time,TemperatureF,DewpointF,PressureIn,WindDirection,WindDirectionDegrees,WindSpeedMPH,WindSpeedGustMPH,Humidity,HourlyPrecipIn,Conditions,Clouds,dailyrainin,SoftwareType,DateUTC
2013-04-02 00:00:00,31.3,14.3,29.81,West,270,9.8,11.6,49,0.00,,,0.00,WUHU216HW,2013-04-02 04:00:00,
2013-04-02 00:05:00,31.3,13.3,29.81,West,270,4.9,10.5,47,0.00,,,0.00,WUHU216HW,2013-04-02 04:05:00,
2013-04-02 00:10:00,31.1,13.1,29.81,WSW,248,0.4,7.8,47,0.00,,,0.00,WUHU216HW,2013-04-02 04:10:00,
2013-04-02 00:15:00,30.8,13.3,29.81,WSW,248,5.6,5.6,48,0.00,,,0.00,WUHU216HW,2013-04-02 04:15:00,
2013-04-02 00:20:00,31.0,13.0,29.81,SW,225,7.2,7.2,47,0.00,,,0.00,WUHU216HW,2013-04-02 04:20:00,
2013-04-02 00:25:00,31.0,13.0,29.81,WSW,248,7.4,9.8,47,0.00,,,0.00,WUHU216HW,2013-04-02 04:25:00,
2013-04-02 00:30:00,31.0,13.0,29.81,West,270,8.5,9.8,47,0.00,,,0.00,WUHU216HW,2013-04-02 04:30:00,
2013-04-02 00:35:00,31.1,14.7,29.82,West,270,6.9,8.5,50,0.00,,,0.00,WUHU216HW,2013-04-02 04:35:00,
2013-04-02 00:40:00,31.0,12.5,29.82,WNW,293,4.3,8.5,46,0.00,,,0.00,WUHU216HW,2013-04-02 04:40:00,
2013-04-02 00:45:00,30.8,12.9,29.82,WSW,248,2.9,4.7,47,0.00,,,0.00,WUHU216HW,2013-04-02 04:45:00,
2013-04-02 00:50:00,30.8,13.3,29.82,ENE,68,1.1,3.4,48,0.00,,,0.00,WUHU216HW,2013-04-02 04:50:00,
2013-04-02 00:55:00,30.6,13.1,29.81,NNW,338,0.9,3.4,48,0.00,,,0.00,WUHU216HW,2013-04-02 04:55:00,
2013-04-02 01:00:00,30.2,12.9,29.81,East,90,0.0,1.1,48,0.00,,,0.00,WUHU216HW,2013-04-02 05:00:00,
2013-04-02 01:05:00,30.1,13.2,29.82,West,270,4.9,6.7,49,0.00,,,0.00,WUHU216HW,2013-04-02 05:05:00,
2013-04-02 01:10:00,30.2,12.9,29.82,SW,225,2.5,6.7,48,0.00,,,0.00,WUHU216HW,2013-04-02 05:10:00,
2013-04-02 01:15:00,30.2,12.3,29.82,SW,225,3.1,4.0,47,0.00,,,0.00,WUHU216HW,2013-04-02 05:15:00,
2013-04-02 01:20:00,30.2,12.9,29.82,ESE,113,1.1,4.9,48,0.00,,,0.00,WUHU216HW,2013-04-02 05:20:00,
2013-04-02 01:24:00,30.1,12.7,29.82,West,270,4.3,4.3,48,0.00,,,0.00,WUHU216HW,2013-04-02 05:24:00,
2013-04-02 01:25:00,30.1,12.7,29.82,West,270,4.3,4.9,48,0.00,,,0.00,WUHU216HW,2013-04-02 05:25:00,
2013-04-02 01:30:00,30.1,12.7,29.82,West,270,4.3,4.3,48,0.00,,,0.00,WUHU216HW,2013-04-02 05:30:00,
2013-04-02 01:54:00,29.2,12.4,29.82,ESE,113,0.0,0.0,49,0.00,,,0.00,WUHU216HW,2013-04-02 05:54:00,
2013-04-02 01:59:00,28.8,12.6,29.82,ENE,68,1.1,1.3,50,0.00,,,0.00,WUHU216HW,2013-04-02 05:59:00,
2013-04-02 02:04:00,28.6,12.8,29.81,SSE,158,0.9,1.8,51,0.00,,,0.00,WUHU216HW,2013-04-02 06:04:00,
2013-04-02 02:09:00,28.6,12.8,29.81,WSW,248,1.8,3.4,51,0.00,,,0.00,WUHU216HW,2013-04-02 06:09:00,
2013-04-02 02:14:00,29.0,13.1,29.81,WNW,293,4.5,4.5,51,0.00,,,0.00,WUHU216HW,2013-04-02 06:14:00,
2013-04-02 02:19:00,29.3,13.5,29.81,NNW,338,3.4,4.5,51,0.00,,,0.00,WUHU216HW,2013-04-02 06:19:00,
2013-04-02 02:24:00,29.2,13.7,29.81,NNW,338,0.9,4.9,52,0.00,,,0.00,WUHU216HW,2013-04-02 06:24:00,
2013-04-02 02:29:00,29.0,13.6,29.81,North,0,2.2,4.9,52,0.00,,,0.00,WUHU216HW,2013-04-02 06:29:00,
2013-04-02 02:34:00,28.6,13.2,29.81,NNW,338,0.4,4.7,52,0.00,,,0.00,WUHU216HW,2013-04-02 06:34:00,
2013-04-02 02:39:00,28.4,13.1,29.81,NW,315,2.5,4.7,52,0.00,,,0.00,WUHU216HW,2013-04-02 06:39:00,
2013-04-02 02:44:00,28.3,13.3,29.81,NNW,338,1.8,2.5,53,0.00,,,0.00,WUHU216HW,2013-04-02 06:44:00,
2013-04-02 02:49:00,28.1,13.2,29.81,NW,315,2.0,2.0,53,0.00,,,0.00,WUHU216HW,2013-04-02 06:49:00,
2013-04-02 02:54:00,27.9,13.3,29.81,NE,45,1.3,2.0,54,0.00,,,0.00,WUHU216HW,2013-04-02 06:54:00,
2013-04-02 02:59:00,27.7,13.1,29.81,ESE,113,0.9,1.6,54,0.00,,,0.00,WUHU216HW,2013-04-02 06:59:00,
2013-04-02 03:04:00,27.5,13.0,29.81,ESE,113,0.9,2.5,54,0.00,,,0.00,WUHU216HW,2013-04-02 07:04:00,
2013-04-02 03:09:00,27.2,13.1,29.81,ESE,113,2.5,2.5,55,0.00,,,0.00,WUHU216HW,2013-04-02 07:09:00,
2013-04-02 03:14:00,26.8,13.5,29.81,ENE,68,0.0,2.5,57,0.00,,,0.00,WUHU216HW,2013-04-02 07:14:00,
2013-04-02 03:19:00,26.6,13.0,29.81,ESE,113,0.4,2.5,56,0.00,,,0.00,WUHU216HW,2013-04-02 07:19:00,
2013-04-02 03:24:00,26.5,13.1,29.81,SSE,158,1.6,1.8,57,0.00,,,0.00,WUHU216HW,2013-04-02 07:24:00,
2013-04-02 03:29:00,26.5,13.1,29.81,SE,135,2.7,3.1,57,0.00,,,0.00,WUHU216HW,2013-04-02 07:29:00,
2013-04-02 03:34:00,26.3,13.1,29.81,East,90,1.3,3.1,57,0.00,,,0.00,WUHU216HW,2013-04-02 07:34:00,
2013-04-02 03:39:00,26.3,13.1,29.81,ESE,113,1.6,2.2,57,0.00,,,0.00,WUHU216HW,2013-04-02 07:39:00,
2013-04-02 03:44:00,26.1,12.9,29.81,ESE,113,2.5,2.5,57,0.00,,,0.00,WUHU216HW,2013-04-02 07:44:00,
2013-04-02 03:49:00,25.7,13.0,29.80,ESE,113,1.3,2.5,58,0.00,,,0.00,WUHU216HW,2013-04-02 07:49:00,
2013-04-02 03:54:00,25.6,12.8,29.81,ENE,68,1.8,2.5,58,0.00,,,0.00,WUHU216HW,2013-04-02 07:54:00,
2013-04-02 03:59:00,25.6,13.2,29.81,ESE,113,0.0,2.0,59,0.00,,,0.00,WUHU216HW,2013-04-02 07:59:00,
2013-04-02 04:04:00,25.2,12.9,29.80,East,90,1.8,1.8,59,0.00,,,0.00,WUHU216HW,2013-04-02 08:04:00,
2013-04-02 04:09:00,25.0,12.7,29.81,East,90,1.8,2.5,59,0.00,,,0.00,WUHU216HW,2013-04-02 08:09:00,
2013-04-02 04:14:00,24.8,13.0,29.80,East,90,1.3,2.5,60,0.00,,,0.00,WUHU216HW,2013-04-02 08:14:00,
2013-04-02 04:20:00,24.7,12.8,29.81,ENE,68,0.7,2.5,60,0.00,,,0.00,WUHU216HW,2013-04-02 08:20:00,
2013-04-02 04:25:00,24.5,12.2,29.81,ENE,68,1.1,1.1,59,0.00,,,0.00,WUHU216HW,2013-04-02 08:25:00,
2013-04-02 04:30:00,24.7,12.8,29.81,ENE,68,0.7,1.3,60,0.00,,,0.00,WUHU216HW,2013-04-02 08:30:00,
2013-04-02 04:35:00,24.7,12.8,29.81,ESE,113,1.1,1.3,60,0.00,,,0.00,WUHU216HW,2013-04-02 08:35:00,
2013-04-02 04:40:00,24.7,12.3,29.81,ESE,113,0.7,1.1,59,0.00,,,0.00,WUHU216HW,2013-04-02 08:40:00,
2013-04-02 04:45:00,24.7,12.3,29.81,SE,135,1.1,1.1,59,0.00,,,0.00,WUHU216HW,2013-04-02 08:45:00,
2013-04-02 04:50:00,24.8,12.5,29.81,WSW,248,0.0,1.1,59,0.00,,,0.00,WUHU216HW,2013-04-02 08:50:00,
2013-04-02 04:55:00,24.8,12.5,29.82,WSW,248,0.9,1.1,59,0.00,,,0.00,WUHU216HW,2013-04-02 08:55:00,
2013-04-02 05:00:00,25.0,12.7,29.82,WSW,248,0.4,1.1,59,0.00,,,0.00,WUHU216HW,2013-04-02 09:00:00,
2013-04-02 05:05:00,25.4,13.1,29.82,West,270,1.8,2.5,59,0.00,,,0.00,WUHU216HW,2013-04-02 09:05:00,
2013-04-02 05:10:00,25.9,13.2,29.82,West,270,2.0,2.7,58,0.00,,,0.00,WUHU216HW,2013-04-02 09:10:00,
2013-04-02 05:15:00,26.6,13.3,29.82,West,270,5.6,6.5,57,0.00,,,0.00,WUHU216HW,2013-04-02 09:15:00,
2013-04-02 05:20:00,27.0,14.5,29.82,WNW,293,9.2,14.5,59,0.00,,,0.00,WUHU216HW,2013-04-02 09:20:00,
2013-04-02 05:25:00,27.2,15.1,29.82,West,270,14.3,14.5,60,0.00,,,0.00,WUHU216HW,2013-04-02 09:25:00,
2013-04-02 05:30:00,27.2,15.5,29.82,West,270,13.2,14.3,61,0.00,,,0.00,WUHU216HW,2013-04-02 09:30:00,
2013-04-02 05:35:00,27.4,15.3,29.82,WSW,248,11.6,13.9,60,0.00,,,0.00,WUHU216HW,2013-04-02 09:35:00,
2013-04-02 05:40:00,27.4,15.7,29.82,West,270,9.2,13.6,61,0.00,,,0.00,WUHU216HW,2013-04-02 09:40:00,
2013-04-02 05:45:00,27.0,14.1,29.82,West,270,8.1,12.8,58,0.00,,,0.00,WUHU216HW,2013-04-02 09:45:00,
2013-04-02 05:50:00,27.2,15.1,29.82,WSW,248,9.2,10.5,60,0.00,,,0.00,WUHU216HW,2013-04-02 09:50:00,
2013-04-02 05:55:00,27.2,15.1,29.82,West,270,6.9,10.5,60,0.00,,,0.00,WUHU216HW,2013-04-02 09:55:00,
2013-04-02 06:00:00,27.4,14.9,29.82,West,270,8.1,9.2,59,0.00,,,0.00,WUHU216HW,2013-04-02 10:00:00,
2013-04-02 06:05:00,27.2,14.3,29.83,WSW,248,6.9,8.3,58,0.00,,,0.00,WUHU216HW,2013-04-02 10:05:00,
2013-04-02 06:10:00,27.4,14.0,29.83,West,270,5.4,8.3,57,0.00,,,0.00,WUHU216HW,2013-04-02 10:10:00,
2013-04-02 06:15:00,27.5,14.2,29.83,WSW,248,5.8,8.1,57,0.00,,,0.00,WUHU216HW,2013-04-02 10:15:00,
2013-04-02 06:20:00,27.5,14.2,29.83,WSW,248,2.5,6.9,57,0.00,,,0.00,WUHU216HW,2013-04-02 10:20:00,
2013-04-02 06:25:00,27.4,13.7,29.83,WSW,248,5.6,5.6,56,0.00,,,0.00,WUHU216HW,2013-04-02 10:25:00,
2013-04-02 06:30:00,27.4,13.7,29.83,West,270,4.9,6.3,56,0.00,,,0.00,WUHU216HW,2013-04-02 10:30:00,
2013-04-02 06:35:00,27.4,12.8,29.83,West,270,5.1,6.3,54,0.00,,,0.00,WUHU216HW,2013-04-02 10:35:00,
2013-04-02 06:40:00,27.4,12.4,29.83,WSW,248,6.9,6.9,53,0.00,,,0.00,WUHU216HW,2013-04-02 10:40:00,
2013-04-02 06:45:00,27.5,11.8,29.83,WSW,248,10.5,11.4,51,0.00,,,0.00,WUHU216HW,2013-04-02 10:45:00,
2013-04-02 06:50:00,27.5,12.2,29.83,SW,225,3.1,11.4,52,0.00,,,0.00,WUHU216HW,2013-04-02 10:50:00,
2013-04-02 06:55:00,27.2,11.8,29.83,WSW,248,6.7,6.7,52,0.00,,,0.00,WUHU216HW,2013-04-02 10:55:00,
2013-04-02 07:00:00,27.2,11.4,29.84,WSW,248,4.3,6.7,51,0.00,,,0.00,WUHU216HW,2013-04-02 11:00:00,
2013-04-02 07:05:00,27.4,11.2,29.84,SW,225,5.4,8.9,50,0.00,,,0.00,WUHU216HW,2013-04-02 11:05:00,
2013-04-02 07:10:00,27.5,11.3,29.84,WSW,248,8.7,8.9,50,0.00,,,0.00,WUHU216HW,2013-04-02 11:10:00,
2013-04-02 07:15:00,27.5,10.4,29.84,SW,225,10.1,11.4,48,0.00,,,0.00,WUHU216HW,2013-04-02 11:15:00,
2013-04-02 07:20:00,27.7,11.5,29.84,WSW,248,12.1,13.6,50,0.00,,,0.00,WUHU216HW,2013-04-02 11:20:00,
2013-04-02 07:25:00,27.7,12.0,29.84,WSW,248,10.3,13.6,51,0.00,,,0.00,WUHU216HW,2013-04-02 11:25:00,
2013-04-02 07:30:00,27.7,11.5,29.84,WSW,248,12.3,13.4,50,0.00,,,0.00,WUHU216HW,2013-04-02 11:30:00,
2013-04-02 07:35:00,27.7,11.5,29.85,WSW,248,9.8,13.4,50,0.00,,,0.00,WUHU216HW,2013-04-02 11:35:00,
2013-04-02 07:40:00,27.7,11.0,29.85,SW,225,6.5,10.3,49,0.00,,,0.00,WUHU216HW,2013-04-02 11:40:00,
2013-04-02 07:45:00,27.7,10.5,29.85,SW,225,3.6,8.3,48,0.00,,,0.00,WUHU216HW,2013-04-02 11:45:00,
2013-04-02 07:50:00,27.7,10.5,29.85,WSW,248,3.8,5.4,48,0.00,,,0.00,WUHU216HW,2013-04-02 11:50:00,
2013-04-02 07:55:00,27.9,10.7,29.85,ESE,113,1.6,5.4,48,0.00,,,0.00,WUHU216HW,2013-04-02 11:55:00,
2013-04-02 08:00:00,28.1,11.3,29.85,WSW,248,2.9,3.8,49,0.00,,,0.00,WUHU216HW,2013-04-02 12:00:00,
2013-04-02 08:05:00,27.9,10.7,29.85,WNW,293,2.2,5.6,48,0.00,,,0.00,WUHU216HW,2013-04-02 12:05:00,
2013-04-02 08:10:00,27.7,10.0,29.85,SW,225,5.1,6.7,47,0.00,,,0.00,WUHU216HW,2013-04-02 12:10:00,
2013-04-02 08:15:00,27.7,10.5,29.85,WSW,248,4.7,9.4,48,0.00,,,0.00,WUHU216HW,2013-04-02 12:15:00,
2013-04-02 08:20:00,27.9,10.7,29.85,WSW,248,7.6,11.4,48,0.00,,,0.00,WUHU216HW,2013-04-02 12:20:00,
2013-04-02 08:25:00,27.9,10.2,29.85,WSW,248,5.4,11.4,47,0.00,,,0.00,WUHU216HW,2013-04-02 12:25:00,
2013-04-02 08:30:00,27.9,9.7,29.85,SW,225,3.1,6.9,46,0.00,,,0.00,WUHU216HW,2013-04-02 12:30:00,
2013-04-02 08:35:00,28.1,10.4,29.85,NW,315,4.0,6.5,47,0.00,,,0.00,WUHU216HW,2013-04-02 12:35:00,
2013-04-02 08:40:00,28.1,10.4,29.85,WSW,248,2.2,6.0,47,0.00,,,0.00,WUHU216HW,2013-04-02 12:40:00,
2013-04-02 08:45:00,28.3,10.5,29.85,WSW,248,5.6,6.3,47,0.00,,,0.00,WUHU216HW,2013-04-02 12:45:00,
2013-04-02 08:50:00,28.4,10.3,29.85,WNW,293,4.0,8.3,46,0.00,,,0.00,WUHU216HW,2013-04-02 12:50:00,
2013-04-02 08:55:00,28.4,10.7,29.85,WSW,248,2.2,8.3,47,0.00,,,0.00,WUHU216HW,2013-04-02 12:55:00,
2013-04-02 09:00:00,28.8,11.1,29.85,SSE,158,2.2,4.7,47,0.00,,,0.00,WUHU216HW,2013-04-02 13:00:00,
2013-04-02 09:05:00,29.2,11.9,29.85,East,90,4.3,4.5,48,0.00,,,0.00,WUHU216HW,2013-04-02 13:05:00,
2013-04-02 09:10:00,29.5,12.3,29.85,ESE,113,1.8,6.5,48,0.00,,,0.00,WUHU216HW,2013-04-02 13:10:00,
2013-04-02 09:15:00,29.9,12.1,29.85,West,270,4.7,6.5,47,0.00,,,0.00,WUHU216HW,2013-04-02 13:15:00,
2013-04-02 09:20:00,29.5,10.2,29.85,WSW,248,5.4,5.4,44,0.00,,,0.00,WUHU216HW,2013-04-02 13:20:00,
2013-04-02 09:25:00,29.5,9.7,29.85,WSW,248,5.1,5.4,43,0.00,,,0.00,WUHU216HW,2013-04-02 13:25:00,
2013-04-02 09:30:00,29.5,10.2,29.85,WSW,248,3.4,5.1,44,0.00,,,0.00,WUHU216HW,2013-04-02 13:30:00,
2013-04-02 09:35:00,29.3,10.0,29.85,West,270,2.5,6.3,44,0.00,,,0.00,WUHU216HW,2013-04-02 13:35:00,
2013-04-02 09:40:00,29.5,9.7,29.85,WSW,248,5.8,8.3,43,0.00,,,0.00,WUHU216HW,2013-04-02 13:40:00,
2013-04-02 09:45:00,29.7,9.4,29.85,WSW,248,8.3,8.7,42,0.00,,,0.00,WUHU216HW,2013-04-02 13:45:00,
2013-04-02 09:50:00,29.9,8.5,29.85,WSW,248,4.0,8.7,40,0.00,,,0.00,WUHU216HW,2013-04-02 13:50:00,
2013-04-02 09:55:00,30.2,9.4,29.84,SW,225,4.7,7.8,41,0.00,,,0.00,WUHU216HW,2013-04-02 13:55:00,
2013-04-02 10:00:00,30.6,9.6,29.85,South,180,6.0,7.8,41,0.00,,,0.00,WUHU216HW,2013-04-02 14:00:00,
2013-04-02 10:05:00,31.3,10.3,29.84,West,270,0.7,6.0,41,0.00,,,0.00,WUHU216HW,2013-04-02 14:05:00,
2013-04-02 10:10:00,31.7,11.2,29.84,SW,225,3.8,3.8,42,0.00,,,0.00,WUHU216HW,2013-04-02 14:10:00,
2013-04-02 10:15:00,32.0,10.4,29.84,SW,225,6.3,6.9,40,0.00,,,0.00,WUHU216HW,2013-04-02 14:15:00,
2013-04-02 10:20:00,31.3,9.2,29.84,WSW,248,4.9,8.5,39,0.00,,,0.00,WUHU216HW,2013-04-02 14:20:00,
2013-04-02 10:25:00,31.3,8.6,29.84,SW,225,4.7,8.5,38,0.00,,,0.00,WUHU216HW,2013-04-02 14:25:00,
2013-04-02 10:30:00,31.3,9.8,29.85,SW,225,6.9,6.9,40,0.00,,,0.00,WUHU216HW,2013-04-02 14:30:00,
2013-04-02 10:35:00,31.3,8.6,29.84,WSW,248,4.0,9.4,38,0.00,,,0.00,WUHU216HW,2013-04-02 14:35:00,
2013-04-02 10:40:00,31.5,9.4,29.84,SW,225,11.2,11.2,39,0.00,,,0.00,WUHU216HW,2013-04-02 14:40:00,
2013-04-02 10:45:00,31.1,9.0,29.84,SW,225,6.3,11.9,39,0.00,,,0.00,WUHU216HW,2013-04-02 14:45:00,
2013-04-02 10:50:00,31.3,8.6,29.84,WSW,248,7.4,11.9,38,0.00,,,0.00,WUHU216HW,2013-04-02 14:50:00,
2013-04-02 10:55:00,31.7,9.5,29.84,WSW,248,8.5,9.8,39,0.00,,,0.00,WUHU216HW,2013-04-02 14:55:00,
2013-04-02 11:00:00,31.7,10.6,29.84,SW,225,8.1,8.5,41,0.00,,,0.00,WUHU216HW,2013-04-02 15:00:00,
2013-04-02 11:05:00,31.9,11.3,29.84,SSW,203,4.3,8.1,42,0.00,,,0.00,WUHU216HW,2013-04-02 15:05:00,
2013-04-02 11:10:00,32.0,11.4,29.84,SW,225,5.1,7.2,42,0.00,,,0.00,WUHU216HW,2013-04-02 15:10:00,
2013-04-02 11:15:00,32.0,10.4,29.84,SW,225,5.4,6.7,40,0.00,,,0.00,WUHU216HW,2013-04-02 15:15:00,
2013-04-02 11:20:00,32.2,11.1,29.83,WSW,248,8.5,8.9,41,0.00,,,0.00,WUHU216HW,2013-04-02 15:20:00,
2013-04-02 11:25:00,32.6,12.0,29.83,SSW,203,3.6,8.9,42,0.00,,,0.00,WUHU216HW,2013-04-02 15:25:00,
2013-04-02 11:26:00,32.8,12.1,29.83,SW,225,5.4,5.4,42,0.00,,,0.00,WUHU216HW,2013-04-02 15:26:00,
2013-04-02 11:30:00,32.8,12.1,29.83,SW,225,5.4,8.1,42,0.00,,,0.00,WUHU216HW,2013-04-02 15:30:00,
2013-04-02 11:35:00,32.8,12.1,29.83,SW,225,5.4,5.4,42,0.00,,,0.00,WUHU216HW,2013-04-02 15:35:00,
2013-04-02 11:56:00,32.6,11.4,29.82,WSW,248,21.3,21.3,41,0.00,,,0.00,WUHU216HW,2013-04-02 15:56:00,
2013-04-02 12:01:00,32.4,11.3,29.82,SW,225,21.3,22.4,41,0.00,,,0.00,WUHU216HW,2013-04-02 16:01:00,
2013-04-02 12:06:00,32.2,12.6,29.82,WSW,248,18.6,22.4,44,0.00,,,0.00,WUHU216HW,2013-04-02 16:06:00,
2013-04-02 12:11:00,32.0,11.4,29.82,West,270,14.3,24.4,42,0.00,,,0.00,WUHU216HW,2013-04-02 16:11:00,
2013-04-02 12:16:00,32.0,13.0,29.82,WSW,248,17.2,24.4,45,0.00,,,0.00,WUHU216HW,2013-04-02 16:16:00,
2013-04-02 12:21:00,32.0,11.0,29.82,WSW,248,14.3,17.2,41,0.00,,,0.00,WUHU216HW,2013-04-02 16:21:00,
2013-04-02 12:26:00,32.4,11.3,29.82,WSW,248,17.7,17.7,41,0.00,,,0.00,WUHU216HW,2013-04-02 16:26:00,
2013-04-02 12:32:00,32.2,10.6,29.82,SW,225,9.2,17.7,40,0.00,,,0.00,WUHU216HW,2013-04-02 16:32:00,
2013-04-02 12:37:00,32.8,12.6,29.82,SW,225,8.5,18.6,43,0.00,,,0.00,WUHU216HW,2013-04-02 16:37:00,
2013-04-02 12:42:00,33.1,11.9,29.82,WNW,293,6.7,18.6,41,0.00,,,0.00,WUHU216HW,2013-04-02 16:42:00,
2013-04-02 12:46:00,33.5,11.7,29.82,SW,225,10.3,10.3,40,0.00,,,0.00,WUHU216HW,2013-04-02 16:46:00,
2013-04-02 12:47:00,33.5,11.7,29.82,SW,225,10.3,12.5,40,0.00,,,0.00,WUHU216HW,2013-04-02 16:47:00,
2013-04-02 12:52:00,33.5,11.7,29.82,SW,225,10.3,12.1,40,0.00,,,0.00,WUHU216HW,2013-04-02 16:52:00,
2013-04-02 13:00:00,32.8,12.1,29.82,WSW,248,15.0,15.0,42,0.00,,,0.00,WUHU216HW,2013-04-02 17:00:00,
2013-04-02 13:05:00,32.8,12.1,29.83,SSW,203,9.8,16.3,42,0.00,,,0.00,WUHU216HW,2013-04-02 17:05:00,
2013-04-02 13:10:00,32.8,12.1,29.82,WSW,248,11.4,16.3,42,0.00,,,0.00,WUHU216HW,2013-04-02 17:10:00,
2013-04-02 13:15:00,33.1,12.4,29.82,SW,225,13.4,13.6,42,0.00,,,0.00,WUHU216HW,2013-04-02 17:15:00,
2013-04-02 13:20:00,33.1,13.0,29.82,WSW,248,10.1,13.4,43,0.00,,,0.00,WUHU216HW,2013-04-02 17:20:00,
2013-04-02 13:25:00,33.7,12.9,29.82,WSW,248,6.7,12.1,42,0.00,,,0.00,WUHU216HW,2013-04-02 17:25:00,
2013-04-02 13:30:00,33.8,13.1,29.82,WSW,248,6.9,10.1,42,0.00,,,0.00,WUHU216HW,2013-04-02 17:30:00,
2013-04-02 13:35:00,33.8,13.1,29.82,WSW,248,10.1,10.1,42,0.00,,,0.00,WUHU216HW,2013-04-02 17:35:00,
2013-04-02 13:40:00,33.3,12.1,29.82,WSW,248,15.4,18.8,41,0.00,,,0.00,WUHU216HW,2013-04-02 17:40:00,
2013-04-02 13:45:00,33.1,11.9,29.82,WSW,248,12.3,18.8,41,0.00,,,0.00,WUHU216HW,2013-04-02 17:45:00,
2013-04-02 13:51:00,33.1,11.4,29.82,SW,225,6.5,18.1,40,0.00,,,0.00,WUHU216HW,2013-04-02 17:51:00,
2013-04-02 13:56:00,33.1,11.9,29.82,West,270,8.9,13.4,41,0.00,,,0.00,WUHU216HW,2013-04-02 17:56:00,
2013-04-02 14:01:00,33.1,12.4,29.82,WSW,248,7.8,13.4,42,0.00,,,0.00,WUHU216HW,2013-04-02 18:01:00,
2013-04-02 14:06:00,33.5,13.2,29.82,WSW,248,8.5,13.4,43,0.00,,,0.00,WUHU216HW,2013-04-02 18:06:00,
2013-04-02 14:11:00,33.7,12.4,29.82,SW,225,13.6,13.6,41,0.00,,,0.00,WUHU216HW,2013-04-02 18:11:00,
2013-04-02 14:16:00,33.1,12.4,29.82,SW,225,11.6,21.0,42,0.00,,,0.00,WUHU216HW,2013-04-02 18:16:00,
2013-04-02 14:21:00,32.9,11.8,29.82,West,270,7.2,21.0,41,0.00,,,0.00,WUHU216HW,2013-04-02 18:21:00,
2013-04-02 14:27:00,32.9,11.3,29.82,SW,225,14.1,17.0,40,0.00,,,0.00,WUHU216HW,2013-04-02 18:27:00,
2013-04-02 14:32:00,32.9,11.3,29.82,SW,225,15.4,15.4,40,0.00,,,0.00,WUHU216HW,2013-04-02 18:32:00,
2013-04-02 14:37:00,32.9,11.3,29.82,WSW,248,13.2,15.4,40,0.00,,,0.00,WUHU216HW,2013-04-02 18:37:00,
2013-04-02 14:42:00,33.5,11.1,29.82,SW,225,16.3,16.3,39,0.00,,,0.00,WUHU216HW,2013-04-02 18:42:00,
2013-04-02 14:47:00,33.5,13.8,29.82,WSW,248,13.2,16.3,44,0.00,,,0.00,WUHU216HW,2013-04-02 18:47:00,
2013-04-02 14:52:00,33.3,13.1,29.82,WSW,248,11.6,17.9,43,0.00,,,0.00,WUHU216HW,2013-04-02 18:52:00,
2013-04-02 14:57:00,33.3,12.1,29.82,SSW,203,5.4,17.9,41,0.00,,,0.00,WUHU216HW,2013-04-02 18:57:00,
2013-04-02 15:02:00,33.5,13.2,29.82,WSW,248,12.5,15.7,43,0.00,,,0.00,WUHU216HW,2013-04-02 19:02:00,
2013-04-02 15:07:00,33.1,11.9,29.82,WSW,248,7.8,15.7,41,0.00,,,0.00,WUHU216HW,2013-04-02 19:07:00,
2013-04-02 15:12:00,33.1,11.9,29.82,WSW,248,9.4,12.1,41,0.00,,,0.00,WUHU216HW,2013-04-02 19:12:00,
2013-04-02 15:17:00,33.1,12.4,29.82,WSW,248,12.1,12.1,42,0.00,,,0.00,WUHU216HW,2013-04-02 19:17:00,
2013-04-02 15:22:00,33.3,12.6,29.82,WSW,248,8.7,12.1,42,0.00,,,0.00,WUHU216HW,2013-04-02 19:22:00,
2013-04-02 15:27:00,33.1,13.4,29.82,WSW,248,16.8,16.8,44,0.00,,,0.00,WUHU216HW,2013-04-02 19:27:00,
2013-04-02 15:33:00,32.9,13.2,29.82,WSW,248,16.3,16.8,44,0.00,,,0.00,WUHU216HW,2013-04-02 19:33:00,
2013-04-02 15:38:00,33.1,13.0,29.82,WSW,248,8.5,16.3,43,0.00,,,0.00,WUHU216HW,2013-04-02 19:38:00,
2013-04-02 15:43:00,33.5,13.8,29.82,WSW,248,8.9,11.4,44,0.00,,,0.00,WUHU216HW,2013-04-02 19:43:00,
2013-04-02 15:48:00,33.7,12.9,29.82,WSW,248,13.9,13.9,42,0.00,,,0.00,WUHU216HW,2013-04-02 19:48:00,
2013-04-02 15:53:00,33.5,12.2,29.82,WSW,248,17.2,17.2,41,0.00,,,0.00,WUHU216HW,2013-04-02 19:53:00,
2013-04-02 15:58:00,32.9,12.2,29.83,WSW,248,13.6,19.5,42,0.00,,,0.00,WUHU216HW,2013-04-02 19:58:00,
2013-04-02 16:03:00,32.9,14.8,29.83,WSW,248,11.2,19.5,47,0.00,,,0.00,WUHU216HW,2013-04-02 20:03:00,
2013-04-02 16:08:00,33.5,14.2,29.83,WSW,248,6.9,14.8,45,0.00,,,0.00,WUHU216HW,2013-04-02 20:08:00,
2013-04-02 16:13:00,33.8,15.6,29.83,WSW,248,7.6,12.3,47,0.00,,,0.00,WUHU216HW,2013-04-02 20:13:00,
2013-04-02 16:18:00,34.4,15.6,29.83,SW,225,7.4,12.3,46,0.00,,,0.00,WUHU216HW,2013-04-02 20:18:00,
2013-04-02 16:23:00,34.6,15.3,29.83,WSW,248,9.4,16.3,45,0.00,,,0.00,WUHU216HW,2013-04-02 20:23:00,
2013-04-02 16:28:00,34.6,15.3,29.83,WSW,248,9.4,16.3,45,0.00,,,0.00,WUHU216HW,2013-04-02 20:28:00,
2013-04-02 16:52:00,35.1,13.7,29.84,WSW,248,8.9,8.9,41,0.00,,,0.00,WUHU216HW,2013-04-02 20:52:00,
2013-04-02 16:57:00,34.6,12.7,29.84,WSW,248,9.4,9.4,40,0.00,,,0.00,WUHU216HW,2013-04-02 20:57:00,
2013-04-02 17:02:00,34.7,15.4,29.84,WSW,248,7.4,10.3,45,0.00,,,0.00,WUHU216HW,2013-04-02 21:02:00,
2013-04-02 17:07:00,34.9,15.6,29.84,WSW,248,9.6,10.5,45,0.00,,,0.00,WUHU216HW,2013-04-02 21:07:00,
2013-04-02 17:12:00,34.2,14.4,29.84,SW,225,4.5,10.7,44,0.00,,,0.00,WUHU216HW,2013-04-02 21:12:00,
2013-04-02 17:17:00,34.0,14.2,29.85,SW,225,2.5,10.7,44,0.00,,,0.00,WUHU216HW,2013-04-02 21:17:00,
2013-04-02 17:22:00,34.4,14.6,29.84,West,270,1.1,7.8,44,0.00,,,0.00,WUHU216HW,2013-04-02 21:22:00,
2013-04-02 17:27:00,35.6,15.2,29.85,SW,225,3.1,7.8,43,0.00,,,0.00,WUHU216HW,2013-04-02 21:27:00,
2013-04-02 17:32:00,36.2,16.3,29.85,WSW,248,1.1,5.1,44,0.00,,,0.00,WUHU216HW,2013-04-02 21:32:00,
2013-04-02 17:37:00,36.0,15.0,29.85,WSW,248,4.0,5.6,42,0.00,,,0.00,WUHU216HW,2013-04-02 21:37:00,
2013-04-02 17:43:00,34.9,14.0,29.85,WSW,248,4.7,10.3,42,0.00,,,0.00,WUHU216HW,2013-04-02 21:43:00,
2013-04-02 17:47:00,34.4,13.6,29.85,SW,225,3.8,3.8,42,0.00,,,0.00,WUHU216HW,2013-04-02 21:47:00,
2013-04-02 17:48:00,34.4,13.6,29.85,SW,225,3.8,10.3,42,0.00,,,0.00,WUHU216HW,2013-04-02 21:48:00,
2013-04-02 17:53:00,34.4,13.6,29.85,SW,225,3.8,5.8,42,0.00,,,0.00,WUHU216HW,2013-04-02 21:53:00,
2013-04-02 18:00:00,33.7,14.0,29.85,WSW,248,7.8,7.8,44,0.00,,,0.00,WUHU216HW,2013-04-02 22:00:00,
2013-04-02 18:05:00,33.7,14.0,29.85,WSW,248,9.8,9.8,44,0.00,,,0.00,WUHU216HW,2013-04-02 22:05:00,
2013-04-02 18:10:00,33.7,15.4,29.85,WSW,248,11.0,15.7,47,0.00,,,0.00,WUHU216HW,2013-04-02 22:10:00,
2013-04-02 18:15:00,33.5,14.8,29.85,WSW,248,14.8,15.7,46,0.00,,,0.00,WUHU216HW,2013-04-02 22:15:00,
2013-04-02 18:20:00,33.3,14.1,29.85,WSW,248,11.4,14.8,45,0.00,,,0.00,WUHU216HW,2013-04-02 22:20:00,
2013-04-02 18:25:00,33.3,13.6,29.85,WSW,248,4.0,11.9,44,0.00,,,0.00,WUHU216HW,2013-04-02 22:25:00,
2013-04-02 18:30:00,33.3,13.6,29.86,WSW,248,7.4,8.3,44,0.00,,,0.00,WUHU216HW,2013-04-02 22:30:00,
2013-04-02 18:35:00,33.3,14.1,29.86,SW,225,7.4,8.1,45,0.00,,,0.00,WUHU216HW,2013-04-02 22:35:00,
2013-04-02 18:40:00,33.1,15.9,29.86,WSW,248,6.5,9.2,49,0.00,,,0.00,WUHU216HW,2013-04-02 22:40:00,
2013-04-02 18:45:00,32.9,15.3,29.86,SW,225,5.4,9.6,48,0.00,,,0.00,WUHU216HW,2013-04-02 22:45:00,
2013-04-02 18:50:00,32.9,17.2,29.86,SW,225,9.2,13.4,52,0.00,,,0.00,WUHU216HW,2013-04-02 22:50:00,
2013-04-02 18:55:00,32.8,17.0,29.86,SW,225,5.4,13.4,52,0.00,,,0.00,WUHU216HW,2013-04-02 22:55:00,
2013-04-02 19:00:00,32.4,17.1,29.87,SW,225,8.3,9.8,53,0.00,,,0.00,WUHU216HW,2013-04-02 23:00:00,
2013-04-02 19:05:00,32.4,17.1,29.86,SW,225,11.2,13.0,53,0.00,,,0.00,WUHU216HW,2013-04-02 23:05:00,
2013-04-02 19:10:00,32.4,17.6,29.87,WSW,248,12.1,13.0,54,0.00,,,0.00,WUHU216HW,2013-04-02 23:10:00,
2013-04-02 19:15:00,32.4,17.1,29.86,SW,225,7.8,12.1,53,0.00,,,0.00,WUHU216HW,2013-04-02 23:15:00,
2013-04-02 19:20:00,32.2,16.5,29.87,WSW,248,6.3,10.7,52,0.00,,,0.00,WUHU216HW,2013-04-02 23:20:00,
2013-04-02 19:25:00,32.0,15.9,29.87,WSW,248,4.0,8.9,51,0.00,,,0.00,WUHU216HW,2013-04-02 23:25:00,
2013-04-02 19:30:00,32.2,16.1,29.87,WSW,248,5.1,6.3,51,0.00,,,0.00,WUHU216HW,2013-04-02 23:30:00,
2013-04-02 19:35:00,32.2,16.1,29.87,SW,225,2.5,6.3,51,0.00,,,0.00,WUHU216HW,2013-04-02 23:35:00,
2013-04-02 19:40:00,32.0,15.9,29.88,SW,225,4.7,4.7,51,0.00,,,0.00,WUHU216HW,2013-04-02 23:40:00,
2013-04-02 19:45:00,32.0,15.9,29.88,SW,225,4.3,4.7,51,0.00,,,0.00,WUHU216HW,2013-04-02 23:45:00,
2013-04-02 19:50:00,31.9,16.2,29.88,WSW,248,3.4,4.3,52,0.00,,,0.00,WUHU216HW,2013-04-02 23:50:00,
2013-04-02 19:55:00,31.7,16.0,29.88,SW,225,2.9,6.0,52,0.00,,,0.00,WUHU216HW,2013-04-02 23:55:00,
2013-04-02 20:00:00,31.7,16.0,29.89,SW,225,4.5,6.0,52,0.00,,,0.00,WUHU216HW,2013-04-03 00:00:00,
2013-04-02 20:05:00,31.7,17.3,29.89,WSW,248,3.4,6.9,55,0.00,,,0.00,WUHU216HW,2013-04-03 00:05:00,
2013-04-02 20:10:00,31.7,16.8,29.88,SSW,203,0.9,6.9,54,0.00,,,0.00,WUHU216HW,2013-04-03 00:10:00,
2013-04-02 20:15:00,31.5,16.8,29.89,SW,225,2.2,6.3,54,0.00,,,0.00,WUHU216HW,2013-04-03 00:15:00,
2013-04-02 20:20:00,31.5,16.3,29.89,SW,225,1.6,5.1,53,0.00,,,0.00,WUHU216HW,2013-04-03 00:20:00,
2013-04-02 20:25:00,31.3,16.1,29.90,SW,225,1.6,2.7,53,0.00,,,0.00,WUHU216HW,2013-04-03 00:25:00,
2013-04-02 20:30:00,31.3,16.1,29.90,South,180,0.4,2.5,53,0.00,,,0.00,WUHU216HW,2013-04-03 00:30:00,
2013-04-02 20:35:00,31.3,15.7,29.90,ESE,113,2.5,2.5,52,0.00,,,0.00,WUHU216HW,2013-04-03 00:35:00,
2013-04-02 20:40:00,31.3,16.1,29.90,WSW,248,2.9,2.9,53,0.00,,,0.00,WUHU216HW,2013-04-03 00:40:00,
2013-04-02 20:46:00,31.3,16.6,29.90,SW,225,2.5,3.4,54,0.00,,,0.00,WUHU216HW,2013-04-03 00:46:00,
2013-04-02 20:51:00,31.3,16.6,29.90,SW,225,2.2,3.4,54,0.00,,,0.00,WUHU216HW,2013-04-03 00:51:00,
2013-04-02 20:56:00,31.3,16.6,29.90,SW,225,1.8,2.5,54,0.00,,,0.00,WUHU216HW,2013-04-03 00:56:00,
2013-04-02 21:01:00,31.3,16.6,29.90,SW,225,1.8,2.2,54,0.00,,,0.00,WUHU216HW,2013-04-03 01:01:00,
2013-04-02 21:06:00,31.3,16.6,29.90,South,180,0.9,2.2,54,0.00,,,0.00,WUHU216HW,2013-04-03 01:06:00,
2013-04-02 21:11:00,31.3,16.6,29.90,SE,135,1.1,2.9,54,0.00,,,0.00,WUHU216HW,2013-04-03 01:11:00,
2013-04-02 21:16:00,31.3,16.6,29.90,SW,225,0.4,2.9,54,0.00,,,0.00,WUHU216HW,2013-04-03 01:16:00,
2013-04-02 21:21:00,31.3,16.6,29.90,South,180,0.9,1.1,54,0.00,,,0.00,WUHU216HW,2013-04-03 01:21:00,
2013-04-02 21:26:00,31.3,16.6,29.91,SW,225,3.8,3.8,54,0.00,,,0.00,WUHU216HW,2013-04-03 01:26:00,
2013-04-02 21:31:00,31.3,16.6,29.90,SW,225,3.8,3.8,54,0.00,,,0.00,WUHU216HW,2013-04-03 01:31:00,
2013-04-02 21:37:00,31.3,16.1,29.91,SW,225,1.8,3.8,53,0.00,,,0.00,WUHU216HW,2013-04-03 01:37:00,
2013-04-02 21:42:00,31.3,16.1,29.91,SW,225,1.8,2.5,53,0.00,,,0.00,WUHU216HW,2013-04-03 01:42:00,
2013-04-02 21:47:00,31.5,15.8,29.91,SSE,158,2.2,2.2,52,0.00,,,0.00,WUHU216HW,2013-04-03 01:47:00,
2013-04-02 21:52:00,31.7,16.0,29.91,WSW,248,3.1,5.6,52,0.00,,,0.00,WUHU216HW,2013-04-03 01:52:00,
2013-04-02 21:57:00,31.9,15.8,29.91,West,270,7.6,7.6,51,0.00,,,0.00,WUHU216HW,2013-04-03 01:57:00,
2013-04-02 22:02:00,32.0,14.9,29.91,WSW,248,6.9,9.6,49,0.00,,,0.00,WUHU216HW,2013-04-03 02:02:00,
2013-04-02 22:07:00,32.4,15.3,29.91,SW,225,6.3,9.6,49,0.00,,,0.00,WUHU216HW,2013-04-03 02:07:00,
2013-04-02 22:12:00,32.6,15.9,29.91,WSW,248,5.1,8.5,50,0.00,,,0.00,WUHU216HW,2013-04-03 02:12:00,
2013-04-02 22:18:00,32.8,14.1,29.91,WSW,248,7.6,8.7,46,0.00,,,0.00,WUHU216HW,2013-04-03 02:18:00,
2013-04-02 22:23:00,32.9,12.8,29.91,West,270,8.9,14.8,43,0.00,,,0.00,WUHU216HW,2013-04-03 02:23:00,
2013-04-02 22:28:00,32.9,14.8,29.91,WSW,248,6.5,14.8,47,0.00,,,0.00,WUHU216HW,2013-04-03 02:28:00,
2013-04-02 22:33:00,32.9,14.3,29.91,WSW,248,5.8,10.5,46,0.00,,,0.00,WUHU216HW,2013-04-03 02:33:00,
2013-04-02 22:38:00,32.9,14.8,29.91,WSW,248,4.0,8.3,47,0.00,,,0.00,WUHU216HW,2013-04-03 02:38:00,
2013-04-02 22:43:00,32.9,12.8,29.91,WSW,248,7.6,9.8,43,0.00,,,0.00,WUHU216HW,2013-04-03 02:43:00,
2013-04-02 22:48:00,32.9,15.3,29.91,WSW,248,10.5,10.7,48,0.00,,,0.00,WUHU216HW,2013-04-03 02:48:00,
2013-04-02 22:53:00,33.1,14.9,29.91,WSW,248,13.9,15.2,47,0.00,,,0.00,WUHU216HW,2013-04-03 02:53:00,
2013-04-02 22:58:00,33.1,14.4,29.91,West,270,14.1,18.6,46,0.00,,,0.00,WUHU216HW,2013-04-03 02:58:00,
2013-04-02 23:03:00,33.1,14.0,29.91,WSW,248,16.3,18.6,45,0.00,,,0.00,WUHU216HW,2013-04-03 03:03:00,
2013-04-02 23:08:00,33.1,14.0,29.91,WSW,248,19.2,19.2,45,0.00,,,0.00,WUHU216HW,2013-04-03 03:08:00,
2013-04-02 23:13:00,33.1,13.4,29.91,WSW,248,11.2,19.2,44,0.00,,,0.00,WUHU216HW,2013-04-03 03:13:00,
2013-04-02 23:18:00,32.9,12.2,29.92,WSW,248,13.9,17.0,42,0.00,,,0.00,WUHU216HW,2013-04-03 03:18:00,
2013-04-02 23:23:00,32.8,13.2,29.92,WSW,248,11.0,16.3,44,0.00,,,0.00,WUHU216HW,2013-04-03 03:23:00,
2013-04-02 23:28:00,32.8,13.6,29.92,WSW,248,15.4,16.8,45,0.00,,,0.00,WUHU216HW,2013-04-03 03:28:00,
2013-04-02 23:34:00,32.8,14.1,29.92,WSW,248,19.2,19.2,46,0.00,,,0.00,WUHU216HW,2013-04-03 03:34:00,
2013-04-02 23:39:00,32.8,13.2,29.92,WSW,248,12.8,19.2,44,0.00,,,0.00,WUHU216HW,2013-04-03 03:39:00,
2013-04-02 23:44:00,32.8,14.1,29.92,WSW,248,16.1,17.9,46,0.00,,,0.00,WUHU216HW,2013-04-03 03:44:00,
2013-04-02 23:49:00,32.6,14.5,29.92,WSW,248,14.1,17.9,47,0.00,,,0.00,WUHU216HW,2013-04-03 03:49:00,
2013-04-02 23:54:00,32.6,14.5,29.92,SW,225,12.1,17.9,47,0.00,,,0.00,WUHU216HW,2013-04-03 03:54:00,
2013-04-02 23:59:00,32.6,14.9,29.93,WSW,248,13.6,17.9,48,0.00,,,0.00,WUHU216HW,2013-04-03 03:59:00,